Bar Harbor, ME

3:13 PM EDT on October 18, 2019 (GMT -0400)
Hancock County-Bar Harbor

Weather History for KBHB - August, 2019

Change the Weather History Date:

Friday, August 30, 2019

  Actual Average Record
Temperature  
Mean Temperature 65 °F -  
Max Temperature 73 °F 76 °F 90 °F (1953)
Min Temperature 57 °F 55 °F 41 °F (1956)
Growing Degree Days 15 (Base 50)    
Moisture  
Dew Point 60 °F    
Average Humidity 92    
Maximum Humidity 100    
Minimum Humidity 62    
Precipitation  
Precipitation 0.01 in - - ()
Sea Level Pressure  
Sea Level Pressure 29.91 in    
Wind  
Wind Speed 2 mph (SSW)    
Max Wind Speed 16 mph    
Max Gust Speed 20 mph    
Visibility 5 miles    
Events Fog    
Averages and records for this station are not official NWS values.
T = Trace of Precipitation, MM = Missing Value Source: NWS Daily Summary

Daily Weather History Graph

Daily Weather History Graph

Search for Another Location

Airport or City:

Astronomy

Aug. 30, 2019 Rise Set
Actual Time 5:53 AM EDT 7:13 PM EDT
Civil Twilight 5:23 AM EDT 7:43 PM EDT
Nautical Twilight 4:46 AM EDT 8:20 PM EDT
Astronomical Twilight 4:08 AM EDT 8:58 PM EDT
Moon 5:47 AM EDT (8/30) 7:48 PM EDT (8/30)
Length of Visible Light 14h 20m
Length of Day
13h 20m
New Moon, 0% of the Moon is Illuminated
Aug 30
New Moon
Sep 5
First Quarter
Sep 14
Full
Sep 21
Last Quarter
Sep 28
New

Hourly Weather History & Observations

Time (EDT) Temp. Dew Point Humidity Pressure Visibility Wind Dir Wind Speed Gust Speed Precip Events Conditions
12:25 AM 62.6 °F 62.6 °F 100% 29.87 in 10.0 mi Calm Calm - N/A   Clear
12:50 AM 60.8 °F 60.8 °F 100% 29.87 in 1.5 mi Calm Calm - N/A   Clear
12:56 AM 62.1 °F 62.1 °F 100% 29.87 in 1.5 mi West 3.5 mph - N/A   Clear
1:00 AM 62.6 °F 62.6 °F 100% 29.87 in 4.0 mi Calm Calm - N/A   Clear
1:56 AM 60.1 °F 60.1 °F 100% 29.88 in 9.0 mi Calm Calm - N/A   Clear
2:12 AM 60.8 °F 59.0 °F 94% 29.87 in 1.5 mi South 3.5 mph - N/A   Clear
2:15 AM 59.0 °F 59.0 °F 100% 29.87 in 0.8 mi Calm Calm - N/A   Mist
2:28 AM 60.8 °F 60.8 °F 100% 29.87 in 0.5 mi South 3.5 mph - N/A Fog Fog
2:40 AM 60.8 °F 60.8 °F 100% 29.87 in 0.2 mi Calm Calm - N/A Fog Fog
2:56 AM 60.1 °F 60.1 °F 100% 29.88 in 0.2 mi SSW 3.5 mph - N/A Fog Fog
3:18 AM 59.0 °F 57.2 °F 94% 29.88 in 0.8 mi Calm Calm - N/A   Mostly Cloudy
3:20 AM 57.2 °F 57.2 °F 100% 29.88 in 1.2 mi Calm Calm - N/A   Mostly Cloudy
3:23 AM 57.2 °F 57.2 °F 100% 29.88 in 0.8 mi Calm Calm - N/A   Mostly Cloudy
3:30 AM 59.0 °F 59.0 °F 100% 29.88 in 0.2 mi Calm Calm - N/A Fog Fog
3:52 AM 60.8 °F 60.8 °F 100% 29.88 in 0.8 mi Calm Calm - N/A   Mostly Cloudy
3:56 AM 60.1 °F 60.1 °F 100% 29.89 in 1.5 mi Calm Calm - N/A   Mostly Cloudy
3:58 AM 60.8 °F 60.8 °F 100% 29.89 in 3.0 mi Calm Calm - N/A   Scattered Clouds
4:16 AM 59.0 °F 59.0 °F 100% 29.89 in 1.8 mi Calm Calm - N/A   Clear
4:24 AM 57.2 °F 57.2 °F 100% 29.89 in 0.8 mi Calm Calm - N/A   Mist
4:28 AM 57.2 °F 57.2 °F 100% 29.89 in 0.2 mi Calm Calm - N/A Fog Fog
4:52 AM 59.0 °F 59.0 °F 100% 29.90 in 0.8 mi Calm Calm - N/A   Overcast
4:54 AM 59.0 °F 59.0 °F 100% 29.90 in 1.2 mi Calm Calm - N/A   Overcast
4:56 AM 59.0 °F 59.0 °F 100% 29.91 in 2.0 mi Calm Calm - N/A   Overcast
5:02 AM 57.2 °F 57.2 °F 100% 29.90 in 1.0 mi Calm Calm - N/A   Mostly Cloudy
5:05 AM 59.0 °F 57.2 °F 94% 29.91 in 0.5 mi Calm Calm - N/A Fog Fog
5:21 AM 59.0 °F 59.0 °F 100% 29.91 in 0.2 mi Calm Calm - N/A Fog Fog
5:56 AM 57.9 °F 57.9 °F 100% 29.93 in 0.2 mi Calm Calm - N/A Fog Fog
6:39 AM 57.2 °F 57.2 °F 100% 29.93 in 0.5 mi Calm Calm - 0.01 in Fog Fog
6:46 AM 59.0 °F 57.2 °F 94% 29.93 in 4.0 mi Calm Calm - 0.01 in   Scattered Clouds
6:56 AM 59.0 °F 57.9 °F 96% 29.93 in 8.0 mi Calm Calm - 0.01 in   Partly Cloudy
7:56 AM 64.0 °F 63.0 °F 96% 29.94 in 10.0 mi South 3.5 mph - N/A   Partly Cloudy
8:52 AM 66.2 °F 60.8 °F 83% 29.93 in 10.0 mi Calm Calm - N/A   Overcast
8:56 AM 66.9 °F 62.1 °F 84% 29.94 in 10.0 mi Calm Calm - N/A   Overcast
9:35 AM 68.0 °F 62.6 °F 83% 29.93 in 10.0 mi SSE 3.5 mph - N/A   Partly Cloudy
9:56 AM 70.0 °F 64.9 °F 84% 29.94 in 10.0 mi Calm Calm - N/A   Clear
10:56 AM 70.0 °F 64.0 °F 81% 29.93 in 10.0 mi SSW 13.8 mph - N/A   Clear
11:56 AM 72.0 °F 62.1 °F 71% 29.92 in 10.0 mi South 13.8 mph - N/A   Clear
12:56 PM 73.0 °F 60.1 °F 64% 29.92 in 10.0 mi SSW 13.8 mph - N/A   Clear
1:56 PM 73.9 °F 60.1 °F 62% 29.91 in 10.0 mi SSW 13.8 mph - N/A   Clear
2:56 PM 72.0 °F 60.1 °F 66% 29.91 in 10.0 mi SSW 13.8 mph 19.6 mph N/A   Clear
3:56 PM 72.0 °F 60.1 °F 66% 29.90 in 10.0 mi SSW 13.8 mph - N/A   Clear
4:56 PM 70.0 °F 61.0 °F 73% 29.90 in 10.0 mi SSW 16.1 mph - N/A   Clear
5:56 PM 68.0 °F 61.0 °F 78% 29.91 in 10.0 mi SSW 10.4 mph - N/A   Clear
6:56 PM 66.0 °F 60.1 °F 81% 29.91 in 10.0 mi SSW 6.9 mph - N/A   Clear
7:56 PM 64.0 °F 60.1 °F 87% 29.93 in 10.0 mi SSW 6.9 mph - N/A   Clear
8:56 PM 63.0 °F 60.1 °F 90% 29.95 in 10.0 mi SSW 4.6 mph - N/A   Partly Cloudy
9:56 PM 63.0 °F 60.1 °F 90% 29.96 in 10.0 mi SW 6.9 mph - N/A   Clear
10:56 PM 62.1 °F 60.1 °F 93% 29.98 in 10.0 mi Calm Calm - N/A   Clear
11:56 PM 61.0 °F 59.0 °F 93% 30.01 in 10.0 mi North 3.5 mph - N/A   Partly Cloudy